Weather History for KGGP - November, 2012

Change the Weather History Date:

Friday, November 16, 2012

  Actual Average Record
Temperature  
Mean Temperature 36 °F -  
Max Temperature 48 °F 48 °F 59 °F (2013)
Min Temperature 24 °F 35 °F 26 °F (2014)
Degree Days  
Heating Degree Days 29    
Moisture  
Dew Point 29 °F    
Average Humidity 80    
Maximum Humidity 100    
Minimum Humidity 46    
Precipitation  
Precipitation 0.00 in - - ()
Sea Level Pressure  
Sea Level Pressure 30.45 in    
Wind  
Wind Speed 0 mph ()    
Max Wind Speed 4 mph    
Max Gust Speed -    
Visibility 5.1 miles    
Events Fog    
Averages and records for this station are not official NWS values.
T = Trace of Precipitation, MM = Missing Value Source: Averaged Metar Reports

Daily Weather History Graph

Daily Weather History Graph

Search for Another Location

Airport or City:

Trip Planner

Search our weather history database for the weather conditions in past years. The results will help you decide how hot, cold, wet, or windy it might be!

Date:

Astronomy

Nov. 16, 2012 Rise Set
Actual Time 7:34 AM EST 5:26 PM EST
Civil Twilight 7:04 AM EST 5:55 PM EST
Nautical Twilight 6:31 AM EST 6:28 PM EST
Astronomical Twilight 5:58 AM EST 7:01 PM EST
Moon 10:28 AM EST (11/16) 8:25 PM EST (11/16)
Length of Visible Light 10h 51m
Length of Day
9h 52m
Waxing Crescent, 11% of the Moon is Illuminated
Nov 16
Waxing Crescent
Nov 20
First Quarter
Nov 28
Full
Dec 6
Last Quarter
Dec 13
New

Hourly Weather History & Observations

Time (EST) Temp. Windchill Dew Point Humidity Pressure Visibility Wind Dir Wind Speed Gust Speed Precip Events Conditions
12:15 AM 28.4 °F - 28.4 °F 100% 30.39 in 3.0 mi Calm Calm - N/A   Clear
12:35 AM 28.4 °F - 28.4 °F 100% 30.39 in 2.5 mi Calm Calm - N/A   Clear
12:55 AM 30.2 °F - 28.4 °F 93% 30.39 in 3.0 mi Calm Calm - N/A   Clear
1:15 AM 30.2 °F - 28.4 °F 93% 30.39 in 2.0 mi Calm Calm - N/A   Clear
1:35 AM 28.4 °F - 28.4 °F 100% 30.39 in 1.8 mi Calm Calm - N/A   Mist
1:55 AM 28.4 °F - 26.6 °F 93% 30.39 in 1.0 mi Calm Calm - N/A   Mist
2:15 AM 28.4 °F - 28.4 °F 100% 30.39 in 1.5 mi Calm Calm - N/A   Mist
2:35 AM 28.4 °F - 26.6 °F 93% 30.40 in 0.8 mi Calm Calm - N/A   Mist
2:55 AM 26.6 °F - 26.6 °F 100% 30.41 in 0.5 mi Calm Calm - N/A Fog Light Freezing Fog
3:15 AM 26.6 °F - 26.6 °F 100% 30.40 in 1.0 mi Calm Calm - N/A   Mist
3:35 AM 26.6 °F 22.6 °F 26.6 °F 100% 30.40 in 0.5 mi ESE 3.5 mph - N/A Fog Light Freezing Fog
3:55 AM 26.6 °F 22.6 °F 26.6 °F 100% 30.40 in 1.5 mi ESE 3.5 mph - N/A   Mist
4:15 AM 28.4 °F - 26.6 °F 93% 30.40 in 2.0 mi Calm Calm - N/A   Clear
4:35 AM 26.6 °F - 26.6 °F 100% 30.40 in 2.0 mi Calm Calm - N/A   Clear
4:55 AM 28.4 °F - 26.6 °F 93% 30.41 in 0.5 mi Calm Calm - N/A Fog Light Freezing Fog
5:15 AM 26.6 °F - 24.8 °F 93% 30.41 in 0.8 mi Calm Calm - N/A   Mostly Cloudy
5:35 AM 26.6 °F - 26.6 °F 100% 30.41 in 2.0 mi Calm Calm - N/A   Clear
5:55 AM 26.6 °F - 26.6 °F 100% 30.42 in 2.0 mi Calm Calm - N/A   Clear
6:15 AM 24.8 °F - 24.8 °F 100% 30.43 in 1.8 mi Calm Calm - N/A   Mist
6:35 AM 24.8 °F - 24.8 °F 100% 30.42 in 2.0 mi Calm Calm - N/A   Clear
6:55 AM 26.6 °F - 24.8 °F 93% 30.43 in 3.0 mi Calm Calm - N/A   Clear
7:15 AM 24.8 °F - 23.0 °F 93% 30.43 in 2.0 mi Calm Calm - N/A   Clear
7:35 AM 26.6 °F - 24.8 °F 93% 30.43 in 1.5 mi Calm Calm - N/A   Mist
7:55 AM 26.6 °F - 24.8 °F 93% 30.45 in 1.8 mi Calm Calm - N/A   Mist
8:15 AM 26.6 °F - 26.6 °F 100% 30.46 in 1.8 mi Calm Calm - N/A   Mist
8:35 AM 28.4 °F - 26.6 °F 93% 30.46 in 1.5 mi Calm Calm - N/A   Mist
8:55 AM 30.2 °F - 30.2 °F 100% 30.46 in 1.8 mi Calm Calm - N/A   Mist
9:15 AM 32.0 °F - 30.2 °F 93% 30.47 in 2.0 mi Calm Calm - N/A   Clear
9:35 AM 32.0 °F - 32.0 °F 100% 30.47 in 2.5 mi Calm Calm - N/A   Clear
9:55 AM 35.6 °F - 32.0 °F 87% 30.48 in 3.0 mi Calm Calm - N/A   Clear
10:15 AM 35.6 °F - 32.0 °F 87% 30.48 in 3.0 mi Calm Calm - N/A   Clear
10:35 AM 37.4 °F - 32.0 °F 81% 30.48 in 4.0 mi Calm Calm - N/A   Haze
10:55 AM 39.2 °F - 32.0 °F 75% 30.48 in 5.0 mi Calm Calm - N/A   Haze
11:15 AM 41.0 °F 39.0 °F 32.0 °F 70% 30.49 in 5.0 mi ESE 3.5 mph - N/A   Haze
11:35 AM 42.8 °F - 32.0 °F 66% 30.49 in 5.0 mi Calm Calm - N/A   Haze
11:55 AM 42.8 °F - 32.0 °F 66% 30.48 in 5.0 mi Calm Calm - N/A   Haze
12:15 PM 42.8 °F 41.1 °F 32.0 °F 66% 30.48 in 7.0 mi SSE 3.5 mph - N/A   Clear
12:35 PM 44.6 °F - 32.0 °F 61% 30.47 in 7.0 mi Calm Calm - N/A   Clear
12:55 PM 46.4 °F 45.2 °F 32.0 °F 57% 30.47 in 7.0 mi SE 3.5 mph - N/A   Clear
1:15 PM 46.4 °F 45.2 °F 30.2 °F 53% 30.47 in 10.0 mi ESE 3.5 mph - N/A   Clear
1:35 PM 46.4 °F - 30.2 °F 53% 30.45 in 7.0 mi Calm Calm - N/A   Clear
1:55 PM 46.4 °F 45.2 °F 30.2 °F 53% 30.45 in 7.0 mi South 3.5 mph - N/A   Clear
2:15 PM 46.4 °F 45.2 °F 30.2 °F 53% 30.45 in 7.0 mi ENE 3.5 mph - N/A   Clear
2:35 PM 48.2 °F - 32.0 °F 54% 30.45 in 7.0 mi Calm Calm - N/A   Clear
2:55 PM 48.2 °F - 30.2 °F 50% 30.45 in 7.0 mi Calm Calm - N/A   Clear
3:15 PM 48.2 °F - 30.2 °F 50% 30.45 in 10.0 mi Calm Calm - N/A   Clear
3:35 PM 48.2 °F - 30.2 °F 50% 30.45 in 10.0 mi Calm Calm - N/A   Clear
3:55 PM 48.2 °F - 28.4 °F 46% 30.45 in 10.0 mi Calm Calm - N/A   Clear
4:15 PM 48.2 °F - 30.2 °F 50% 30.46 in 10.0 mi Calm Calm - N/A   Clear
4:35 PM 46.4 °F - 28.4 °F 50% 30.47 in 10.0 mi Calm Calm - N/A   Clear
4:55 PM 46.4 °F - 30.2 °F 53% 30.47 in 10.0 mi Calm Calm - N/A   Clear
5:15 PM 44.6 °F - 32.0 °F 61% 30.47 in 10.0 mi Calm Calm - N/A   Clear
5:35 PM 42.8 °F - 32.0 °F 66% 30.47 in 10.0 mi Calm Calm - N/A   Clear
5:55 PM 41.0 °F - 30.2 °F 65% 30.47 in 10.0 mi Calm Calm - N/A   Clear
6:15 PM 41.0 °F - 30.2 °F 65% 30.48 in 10.0 mi Calm Calm - N/A   Clear
6:35 PM 41.0 °F - 30.2 °F 65% 30.48 in 10.0 mi Calm Calm - N/A   Clear
6:55 PM 41.0 °F - 30.2 °F 65% 30.48 in 10.0 mi Calm Calm - N/A   Clear
7:15 PM 37.4 °F - 30.2 °F 75% 30.48 in 10.0 mi Calm Calm - N/A   Clear
7:35 PM 35.6 °F - 30.2 °F 81% 30.48 in 10.0 mi Calm Calm - N/A   Clear
7:55 PM 35.6 °F - 28.4 °F 75% 30.48 in 4.0 mi Calm Calm - N/A   Haze
8:15 PM 33.8 °F - 28.4 °F 81% 30.48 in 5.0 mi Calm Calm - N/A   Haze
8:55 PM 33.8 °F 30.8 °F 30.2 °F 87% 30.48 in 7.0 mi ESE 3.5 mph - N/A   Clear
9:15 PM 32.0 °F 28.7 °F 30.2 °F 93% 30.49 in 7.0 mi ESE 3.5 mph - N/A   Clear
9:35 PM 33.8 °F - 30.2 °F 87% 30.49 in 7.0 mi Calm Calm - N/A   Clear
9:55 PM 33.8 °F - 30.2 °F 87% 30.49 in 7.0 mi Calm Calm - N/A   Clear
10:15 PM 33.8 °F - 30.2 °F 87% 30.49 in 7.0 mi Calm Calm - N/A   Clear
10:35 PM 32.0 °F - 28.4 °F 87% 30.49 in 7.0 mi Calm Calm - N/A   Clear
10:55 PM 32.0 °F - 28.4 °F 87% 30.49 in 7.0 mi Calm Calm - N/A   Clear
11:15 PM 32.0 °F 28.7 °F 28.4 °F 87% 30.49 in 7.0 mi East 3.5 mph - N/A   Clear
11:35 PM 32.0 °F 28.7 °F 28.4 °F 87% 30.49 in 7.0 mi East 3.5 mph - N/A   Clear
11:55 PM 32.0 °F 28.7 °F 26.6 °F 80% 30.49 in 7.0 mi East 3.5 mph - N/A   Clear